Pontiac, MI

11:00 AM EDT on March 24, 2017 (GMT -0400)
Oakland County International

Weather History for KPTK - January, 2013

Change the Weather History Date:

Friday, January 18, 2013

  Actual Average Record
Temperature  
Mean Temperature 23 °F -  
Max Temperature 34 °F 25 °F 41 °F (1999)
Min Temperature 12 °F 12 °F -2 °F (2005)
Degree Days  
Heating Degree Days 42    
Moisture  
Dew Point 13 °F    
Average Humidity 67    
Maximum Humidity 86    
Minimum Humidity 47    
Precipitation  
Precipitation 0.00 in - - ()
Sea Level Pressure  
Sea Level Pressure 30.26 in    
Wind  
Wind Speed 8 mph (SSW)    
Max Wind Speed 18 mph    
Max Gust Speed 33 mph    
Visibility 10 miles    
Events      
Averages and records for this station are not official NWS values.
T = Trace of Precipitation, MM = Missing Value Source: NWS Daily Summary

Daily Weather History Graph

Daily Weather History Graph

Search for Another Location

Airport or City:

Trip Planner

Search our weather history database for the weather conditions in past years. The results will help you decide how hot, cold, wet, or windy it might be!

Date:

Astronomy

Jan. 18, 2013 Rise Set
Actual Time 7:59 AM EST 5:29 PM EST
Civil Twilight 7:28 AM EST 6:00 PM EST
Nautical Twilight 6:53 AM EST 6:35 PM EST
Astronomical Twilight 6:20 AM EST 7:08 PM EST
Moon 11:26 AM EST (1/18) 12:29 AM EST (1/18)
Length of Visible Light 10h 32m
Length of Day
9h 30m
Waxing Crescent, 47% of the Moon is Illuminated
Jan 18
Waxing Crescent
Jan 18
First Quarter
Jan 26
Full
Feb 3
Last Quarter
Feb 10
New

Hourly Weather History & Observations

Time (EST) Temp. Windchill Dew Point Humidity Pressure Visibility Wind Dir Wind Speed Gust Speed Precip Events Conditions
12:53 AM 15.1 °F 4.2 °F 5.0 °F 64% 30.34 in 10.0 mi NW 8.1 mph - N/A   Clear
1:53 AM 15.1 °F 6.4 °F 6.1 °F 68% 30.37 in 10.0 mi West 5.8 mph - N/A   Mostly Cloudy
2:53 AM 14.0 °F 6.5 °F 7.0 °F 74% 30.39 in 10.0 mi West 4.6 mph - N/A   Partly Cloudy
3:53 AM 15.1 °F 7.7 °F 9.0 °F 77% 30.40 in 10.0 mi West 4.6 mph - N/A   Overcast
4:53 AM 15.1 °F 9.4 °F 9.0 °F 77% 30.40 in 10.0 mi West 3.5 mph - N/A   Mostly Cloudy
5:35 AM 15.8 °F 10.2 °F 10.4 °F 79% 30.37 in 10.0 mi SW 3.5 mph - N/A   Mostly Cloudy
5:45 AM 14.0 °F - 10.4 °F 86% 30.37 in 10.0 mi Calm Calm - N/A   Scattered Clouds
5:53 AM 14.0 °F - 10.0 °F 84% 30.42 in 10.0 mi Calm Calm - N/A   Scattered Clouds
6:53 AM 12.9 °F - 9.0 °F 84% 30.43 in 10.0 mi Calm Calm - N/A   Partly Cloudy
7:53 AM 12.9 °F 6.9 °F 9.0 °F 84% 30.43 in 10.0 mi South 3.5 mph - N/A   Scattered Clouds
8:53 AM 15.1 °F 9.4 °F 10.9 °F 84% 30.43 in 10.0 mi SSW 3.5 mph - N/A   Mostly Cloudy
9:53 AM 18.0 °F 11.1 °F 10.0 °F 71% 30.43 in 10.0 mi South 4.6 mph - N/A   Overcast
10:53 AM 21.0 °F 12.4 °F 10.9 °F 65% 30.42 in 10.0 mi SSW 6.9 mph - N/A   Mostly Cloudy
11:53 AM 24.1 °F 16.0 °F 12.0 °F 60% 30.37 in 10.0 mi South 6.9 mph - N/A   Overcast
12:53 PM 25.0 °F 14.8 °F 14.0 °F 63% 30.32 in 7.0 mi SSW 10.4 mph - N/A   Overcast
1:53 PM 28.0 °F 18.1 °F 17.1 °F 63% 30.24 in 8.0 mi South 11.5 mph - 0.00 in   Overcast
2:53 PM 30.9 °F 20.2 °F 12.9 °F 47% 30.19 in 10.0 mi SSW 15.0 mph 24.2 mph N/A   Overcast
3:53 PM 30.9 °F 19.8 °F 15.1 °F 52% 30.16 in 10.0 mi South 16.1 mph 24.2 mph N/A   Mostly Cloudy
4:53 PM 30.9 °F 20.2 °F 17.1 °F 57% 30.12 in 10.0 mi South 15.0 mph 32.2 mph N/A   Overcast
5:53 PM 30.9 °F 20.2 °F 19.0 °F 61% 30.09 in 10.0 mi South 15.0 mph 24.2 mph N/A   Mostly Cloudy
6:53 PM 32.0 °F 21.6 °F 19.9 °F 61% 30.06 in 10.0 mi SSW 15.0 mph 27.6 mph N/A   Overcast
7:53 PM 33.1 °F 21.9 °F 19.0 °F 56% 30.04 in 10.0 mi SSW 18.4 mph 26.5 mph N/A   Overcast
8:53 PM 33.1 °F 23.4 °F 18.0 °F 54% 30.03 in 10.0 mi SSW 13.8 mph 33.4 mph N/A   Mostly Cloudy
9:53 PM 34.0 °F 23.4 °F 19.0 °F 54% 30.01 in 10.0 mi SSW 17.3 mph 26.5 mph N/A   Mostly Cloudy
10:53 PM 33.1 °F 22.6 °F 19.9 °F 59% 29.99 in 10.0 mi SSW 16.1 mph 23.0 mph N/A   Partly Cloudy
11:53 PM 33.1 °F 23.0 °F 19.9 °F 59% 29.96 in 10.0 mi SSW 15.0 mph 23.0 mph N/A   Partly Cloudy